Location: Hemaruka
(51.7801°N, 111.0917°W)
Time: 10:08:33
(UTC+00:00)

NOAA 15 - Pass Details

Date: 10 December 2023
Orbit: 797 x 810 km, 98.6° (Epoch: 02 March)

Event Time Altitude Azimuth Distance (km) Brightness Sun altitude
Rises 00:31:58 0° 120° (ESE) 3,320 7.4 -11.2°
Reaches altitude 10° 00:34:44 10° 106° (ESE) 2,391 6.6 -11.6°
Maximum altitude 00:38:44 23° 56° (NE) 1,684 5.7 -12.2°
Drops below altitude 10° 00:42:45 10° 7° (N) 2,395 6.8 -12.8°
Sets 00:45:31 0° 353° (N) 3,328 7.7 -13.2°
